Weather History for Cincinnati, OH

Change the Weather History Date:

Wednesday, May 9, 2012

  Actual Average Record
Temperature  
Mean Temperature 62 °F -  
Max Temperature 71 °F 70 °F 90 °F (1963)
Min Temperature 55 °F 49 °F 34 °F (1980)
Degree Days  
Heating Degree Days 2    
Growing Degree Days 12 (Base 50)    
Moisture  
Dew Point 48 °F    
Average Humidity 63    
Maximum Humidity 96    
Minimum Humidity 37    
Precipitation  
Precipitation 0.00 in - - ()
Sea Level Pressure  
Sea Level Pressure 29.86 in    
Wind  
Wind Speed 3 mph (NW)    
Max Wind Speed 16 mph    
Max Gust Speed 23 mph    
Visibility 10 miles    
Events      
Averages and records for this station are not official NWS values.
T = Trace of Precipitation, MM = Missing Value Source: NWS Daily Summary

Daily Weather History Graph

Daily Weather History Graph

Search for Another Location

Airport:

Trip Planner

Search our weather history database for the weather conditions in past years. The results will help you decide how hot, cold, wet, or windy it might be!

Date:

Astronomy

May. 09, 2012 Rise Set
Actual Time 6:29 AM EDT 8:38 PM EDT
Civil Twilight 6:00 AM EDT 9:08 PM EDT
Nautical Twilight 5:24 AM EDT 9:44 PM EDT
Astronomical Twilight 4:44 AM EDT 10:24 PM EDT
Moon No Moon Rise 9:44 AM EDT (5/9)
Length of Visible Light 15h 08m
Length of Day
14h 08m
Waning Gibbous, 83% of the Moon is Illuminated
May 9
Waning Gibbous
May 12
Last Quarter
May 20
New
May 28
First Quarter
Jun 4
Full

Hourly Weather History & Observations

Time (EDT) Temp. Dew Point Humidity Pressure Visibility Wind Dir Wind Speed Gust Speed Precip Events Conditions
12:53 AM 57.9 °F 54.0 °F 87% 29.91 in 10.0 mi Calm Calm - N/A   Clear
1:53 AM 57.0 °F 54.0 °F 89% 29.90 in 10.0 mi Calm Calm - N/A   Clear
2:53 AM 57.0 °F 54.0 °F 89% 29.89 in 10.0 mi Calm Calm - N/A   Clear
3:53 AM 55.9 °F 54.0 °F 93% 29.89 in 10.0 mi Calm Calm - N/A   Clear
4:53 AM 55.9 °F 54.0 °F 93% 29.88 in 10.0 mi Calm Calm - N/A   Clear
5:53 AM 55.9 °F 54.0 °F 93% 29.89 in 10.0 mi Calm Calm - N/A   Clear
6:53 AM 55.0 °F 54.0 °F 96% 29.89 in 8.0 mi Calm Calm - N/A   Mostly Cloudy
7:53 AM 57.0 °F 55.0 °F 93% 29.89 in 10.0 mi Calm Calm - N/A   Mostly Cloudy
8:53 AM 59.0 °F 55.0 °F 87% 29.88 in 10.0 mi Calm Calm - N/A   Mostly Cloudy
9:53 AM 64.9 °F 54.0 °F 68% 29.87 in 10.0 mi Calm Calm - N/A   Mostly Cloudy
10:53 AM 68.0 °F 48.0 °F 49% 29.87 in 10.0 mi WNW 8.1 mph - N/A   Clear
11:53 AM 66.9 °F 43.0 °F 42% 29.87 in 10.0 mi WNW 11.5 mph 19.6 mph N/A   Mostly Cloudy
12:53 PM 70.0 °F 44.1 °F 39% 29.86 in 10.0 mi West 16.1 mph 21.9 mph N/A   Scattered Clouds
1:53 PM 66.9 °F 43.0 °F 42% 29.85 in 10.0 mi WNW 10.4 mph 23.0 mph N/A   Mostly Cloudy
2:53 PM 70.0 °F 43.0 °F 38% 29.83 in 10.0 mi WNW 10.4 mph - N/A   Partly Cloudy
3:53 PM 68.0 °F 41.0 °F 37% 29.81 in 10.0 mi NW 9.2 mph 19.6 mph N/A   Partly Cloudy
4:53 PM 70.0 °F 44.1 °F 39% 29.81 in 10.0 mi WNW 12.7 mph 18.4 mph N/A   Mostly Cloudy
5:53 PM 68.0 °F 44.1 °F 42% 29.81 in 10.0 mi WNW 10.4 mph 18.4 mph N/A   Mostly Cloudy
6:53 PM 66.9 °F 44.1 °F 44% 29.81 in 10.0 mi NNW 8.1 mph 17.3 mph N/A   Mostly Cloudy
7:53 PM 64.9 °F 42.1 °F 43% 29.82 in 10.0 mi NW 11.5 mph 17.3 mph N/A   Partly Cloudy
8:53 PM 63.0 °F 44.1 °F 50% 29.85 in 10.0 mi NW 5.8 mph - N/A   Clear
9:53 PM 61.0 °F 44.1 °F 54% 29.87 in 10.0 mi WNW 6.9 mph - N/A   Partly Cloudy
10:53 PM 60.1 °F 44.1 °F 55% 29.88 in 10.0 mi Variable 4.6 mph - N/A   Scattered Clouds
11:53 PM 57.9 °F 45.0 °F 62% 29.89 in 10.0 mi NNW 5.8 mph - N/A   Clear